Location: アルンシュタイン
(50.0000°N, 10.0000°E)
Time: 06:03:47
(UTC+01:00)

Envisat - Pass Details

Date: 25 October 2021
Orbit: 764 x 766 km, 98.2° (Epoch: 04 December)

Event Time Altitude Azimuth Distance (km) Brightness Sun altitude
Rises 18:38:31 0° 204° (SSW) 3,222 6.8 -5.4°
Reaches altitude 10° 18:41:19 10° 219° (SW) 2,301 6.4 -5.8°
Maximum altitude 18:45:12 22° 270° (W) 1,641 6.0 -6.4°
Drops below altitude 10° 18:49:06 10° 320° (NW) 2,315 5.9 -7.1°
Sets 18:51:57 0° 335° (NNW) 3,246 6.4 -7.5°
